RYR6RR EGSS-LEAM

Flight info

Callsign RYR6RR
Flight time 2h 35m
Altitude 38000
Route NUGBO M183 SILVA Q41 SAM N63 LELNA/N0445F370 DCT NOVAN DCT NENEM P152 PPN N10 CJN L27 BLN N865 ESILA
Aircraft B38M/M-SADE3FGILRWY/SB1

Departure

Time 2026-04-20 13:52
Airport London Stansted Airport (EGSS)

Arrival

Time 2026-04-20 16:28
Airport Almería Airport (LEAM)
Time Latitude Longitude Altitude Speed Heading
2026-04-20 13:29 51.89020 0.25688 345 ft 0 kts 44°
2026-04-20 13:42 51.89020 0.25687 345 ft 2 kts 44°
2026-04-20 13:42 51.89004 0.25657 356 ft 4 kts 44°
2026-04-20 13:43 51.88993 0.25651 352 ft 4 kts 344°
2026-04-20 13:43 51.88977 0.25674 348 ft 4 kts 312°
2026-04-20 13:43 51.88963 0.25700 352 ft 0 kts 313°
2026-04-20 13:45 51.88969 0.25689 350 ft 2 kts 313°
2026-04-20 13:45 51.88987 0.25658 351 ft 6 kts 313°
2026-04-20 13:46 51.89028 0.25585 345 ft 12 kts 313°
2026-04-20 13:46 51.89101 0.25458 343 ft 17 kts 313°
2026-04-20 13:46 51.89169 0.25308 350 ft 15 kts 271°
2026-04-20 13:46 51.89108 0.25176 346 ft 16 kts 223°
2026-04-20 13:47 51.89021 0.25045 353 ft 18 kts 223°
2026-04-20 13:47 51.88924 0.24899 345 ft 20 kts 223°
2026-04-20 13:47 51.88818 0.24742 354 ft 21 kts 222°
2026-04-20 13:47 51.88709 0.24576 353 ft 23 kts 224°
2026-04-20 13:48 51.88589 0.24397 346 ft 24 kts 223°
2026-04-20 13:48 51.88460 0.24202 352 ft 26 kts 223°
2026-04-20 13:48 51.88319 0.23994 347 ft 29 kts 222°
2026-04-20 13:48 51.88174 0.23774 341 ft 26 kts 224°
2026-04-20 13:49 51.88035 0.23568 338 ft 28 kts 222°
2026-04-20 13:49 51.87894 0.23353 339 ft 27 kts 223°
2026-04-20 13:49 51.87754 0.23145 335 ft 22 kts 226°
2026-04-20 13:49 51.87769 0.22969 337 ft 17 kts 311°
2026-04-20 13:50 51.87757 0.22845 338 ft 12 kts 217°
2026-04-20 13:50 51.87690 0.22752 338 ft 14 kts 223°
2026-04-20 13:50 51.87616 0.22639 341 ft 16 kts 223°
2026-04-20 13:50 51.87516 0.22488 336 ft 22 kts 221°
2026-04-20 13:51 51.87405 0.22301 334 ft 24 kts 248°
2026-04-20 13:51 51.87478 0.22068 330 ft 25 kts 318°
2026-04-20 13:51 51.87631 0.22173 334 ft 43 kts 43°
2026-04-20 13:51 51.88052 0.22801 337 ft 119 kts 43°
2026-04-20 13:52 51.88796 0.23906 548 ft 159 kts 40°
2026-04-20 13:52 51.89620 0.25156 1490 ft 160 kts 42°
2026-04-20 13:52 51.90428 0.26384 2378 ft 167 kts 43°
2026-04-20 13:52 51.91332 0.27755 2992 ft 191 kts 43°
2026-04-20 13:53 51.92445 0.29147 3670 ft 215 kts 25°
2026-04-20 13:53 51.93988 0.29568 4406 ft 235 kts 353°
2026-04-20 13:53 51.95552 0.28583 5309 ft 254 kts 326°
2026-04-20 13:53 51.96707 0.26324 6192 ft 269 kts 294°
2026-04-20 13:54 51.97099 0.23335 7269 ft 275 kts 281°
2026-04-20 13:54 51.97433 0.20257 8275 ft 278 kts 282°
2026-04-20 13:54 51.97776 0.17159 9279 ft 281 kts 283°
2026-04-20 13:54 51.98122 0.14020 10248 ft 284 kts 282°
2026-04-20 13:55 51.98473 0.10821 10886 ft 296 kts 281°
2026-04-20 13:55 51.98825 0.07464 11275 ft 314 kts 277°
2026-04-20 13:55 51.98649 0.03871 11854 ft 325 kts 259°
2026-04-20 13:55 51.98185 0.00276 12589 ft 328 kts 261°
2026-04-20 13:56 51.97734 -0.03359 13336 ft 328 kts 261°
2026-04-20 13:56 51.97273 -0.06995 14054 ft 331 kts 260°
2026-04-20 13:56 51.96801 -0.10658 14655 ft 333 kts 260°
2026-04-20 13:56 51.96323 -0.14349 15251 ft 336 kts 260°
2026-04-20 13:57 51.95838 -0.18065 15838 ft 338 kts 260°
2026-04-20 13:57 51.95351 -0.21798 16512 ft 340 kts 260°
2026-04-20 13:57 51.94865 -0.25505 17135 ft 342 kts 260°
2026-04-20 13:57 51.94368 -0.29288 17765 ft 344 kts 260°
2026-04-20 13:58 51.93868 -0.33089 18353 ft 346 kts 260°
2026-04-20 13:58 51.93363 -0.36915 18888 ft 348 kts 260°
2026-04-20 13:58 51.92854 -0.40760 19406 ft 349 kts 261°
2026-04-20 13:58 51.92344 -0.44601 19932 ft 349 kts 261°
2026-04-20 13:59 51.91831 -0.48453 20433 ft 350 kts 261°
2026-04-20 13:59 51.91316 -0.52307 20937 ft 350 kts 261°
2026-04-20 13:59 51.90799 -0.56169 21436 ft 351 kts 262°
2026-04-20 13:59 51.90287 -0.59985 21903 ft 352 kts 262°
2026-04-20 14:00 51.89767 -0.63854 22362 ft 352 kts 262°
2026-04-20 14:00 51.89242 -0.67739 22817 ft 353 kts 262°
2026-04-20 14:00 51.88716 -0.71625 23255 ft 354 kts 262°
2026-04-20 14:00 51.88188 -0.75519 23666 ft 355 kts 263°
2026-04-20 14:01 51.87657 -0.79425 24028 ft 356 kts 263°
2026-04-20 14:01 51.87123 -0.83338 24352 ft 357 kts 263°
2026-04-20 14:01 51.86587 -0.87261 24674 ft 358 kts 263°
2026-04-20 14:01 51.86048 -0.91198 24957 ft 359 kts 263°
2026-04-20 14:02 51.85249 -0.94998 25238 ft 369 kts 248°
2026-04-20 14:02 51.83663 -0.98346 25569 ft 384 kts 230°
2026-04-20 14:02 51.81404 -1.00778 25996 ft 400 kts 213°
2026-04-20 14:02 51.78691 -1.02102 26261 ft 417 kts 198°
2026-04-20 14:03 51.75816 -1.02813 26531 ft 418 kts 198°
2026-04-20 14:03 51.72940 -1.03575 26751 ft 420 kts 198°
2026-04-20 14:03 51.70051 -1.04324 26990 ft 421 kts 198°
2026-04-20 14:03 51.67154 -1.05070 27217 ft 423 kts 198°
2026-04-20 14:04 51.64245 -1.05816 27438 ft 424 kts 198°
2026-04-20 14:04 51.61386 -1.06633 27631 ft 419 kts 204°
2026-04-20 14:04 51.58580 -1.07880 27810 ft 420 kts 205°
2026-04-20 14:04 51.55753 -1.09091 27978 ft 421 kts 204°
2026-04-20 14:05 51.52917 -1.10276 28218 ft 422 kts 204°
2026-04-20 14:05 51.50071 -1.11450 28403 ft 423 kts 204°
2026-04-20 14:05 51.47225 -1.12647 28571 ft 423 kts 205°
2026-04-20 14:05 51.44375 -1.13873 28739 ft 424 kts 205°
2026-04-20 14:06 51.41521 -1.15093 28911 ft 425 kts 205°
2026-04-20 14:06 51.38657 -1.16314 29067 ft 427 kts 205°
2026-04-20 14:06 51.35785 -1.17537 29239 ft 427 kts 205°
2026-04-20 14:06 51.32948 -1.18743 29392 ft 428 kts 204°
2026-04-20 14:07 51.30064 -1.19966 29552 ft 428 kts 204°
2026-04-20 14:07 51.27187 -1.21186 29739 ft 429 kts 204°
2026-04-20 14:07 51.24299 -1.22409 29884 ft 430 kts 204°
2026-04-20 14:07 51.21406 -1.23633 30058 ft 431 kts 204°
2026-04-20 14:08 51.18505 -1.24857 30220 ft 432 kts 204°
2026-04-20 14:08 51.15597 -1.26084 30369 ft 433 kts 204°
2026-04-20 14:08 51.12684 -1.27310 30498 ft 434 kts 204°
2026-04-20 14:08 51.09763 -1.28539 30615 ft 435 kts 204°
2026-04-20 14:09 51.06832 -1.29771 30748 ft 436 kts 204°
2026-04-20 14:09 51.03928 -1.30989 30877 ft 438 kts 204°
2026-04-20 14:09 51.00979 -1.32224 31015 ft 439 kts 204°
2026-04-20 14:09 50.98025 -1.33461 31147 ft 440 kts 204°
2026-04-20 14:10 50.95111 -1.34872 31254 ft 432 kts 213°
2026-04-20 14:10 50.92455 -1.37006 31336 ft 429 kts 216°
2026-04-20 14:10 50.89768 -1.39131 31446 ft 432 kts 215°
2026-04-20 14:10 50.87083 -1.41261 31551 ft 433 kts 215°
2026-04-20 14:11 50.84387 -1.43405 31663 ft 434 kts 214°
2026-04-20 14:11 50.81687 -1.45554 31799 ft 435 kts 214°
2026-04-20 14:11 50.79016 -1.47679 31926 ft 436 kts 214°
2026-04-20 14:11 50.76299 -1.49837 32065 ft 438 kts 214°
2026-04-20 14:12 50.73574 -1.51999 32195 ft 439 kts 214°
2026-04-20 14:12 50.70838 -1.54165 32324 ft 441 kts 214°
2026-04-20 14:12 50.68091 -1.56338 32466 ft 442 kts 214°
2026-04-20 14:12 50.65336 -1.58515 32599 ft 444 kts 214°
2026-04-20 14:13 50.59832 -1.62854 32859 ft 447 kts 214°
2026-04-20 14:13 50.57050 -1.65044 33037 ft 447 kts 214°
2026-04-20 14:13 50.54266 -1.67232 33230 ft 448 kts 214°
2026-04-20 14:14 50.51479 -1.69420 33435 ft 448 kts 214°
2026-04-20 14:14 50.48684 -1.71610 33646 ft 449 kts 214°
2026-04-20 14:14 50.45890 -1.73797 33851 ft 449 kts 213°
2026-04-20 14:14 50.43090 -1.75986 34064 ft 450 kts 213°
2026-04-20 14:15 50.40286 -1.78175 34254 ft 450 kts 213°
2026-04-20 14:15 50.37479 -1.80362 34463 ft 450 kts 213°
2026-04-20 14:15 50.34678 -1.82543 34703 ft 449 kts 213°
2026-04-20 14:15 50.31882 -1.84717 34920 ft 449 kts 213°
2026-04-20 14:16 50.29089 -1.86886 35160 ft 448 kts 212°
2026-04-20 14:16 50.26301 -1.89048 35387 ft 447 kts 212°
2026-04-20 14:16 50.23516 -1.91205 35622 ft 446 kts 212°
2026-04-20 14:16 50.20775 -1.93326 35819 ft 445 kts 212°
2026-04-20 14:17 50.18000 -1.95469 36047 ft 445 kts 212°
2026-04-20 14:17 50.15233 -1.97603 36227 ft 444 kts 211°
2026-04-20 14:17 50.12463 -1.99739 36418 ft 443 kts 211°
2026-04-20 14:17 50.09698 -2.01866 36605 ft 443 kts 211°
2026-04-20 14:18 50.06938 -2.03987 36796 ft 442 kts 211°
2026-04-20 14:18 50.04179 -2.06105 36976 ft 442 kts 211°
2026-04-20 14:18 50.01425 -2.08218 37145 ft 441 kts 211°
2026-04-20 14:18 49.98662 -2.10310 37246 ft 443 kts 208°
2026-04-20 14:19 49.92752 -2.13210 37231 ft 447 kts 202°
2026-04-20 14:19 49.86807 -2.16001 37221 ft 446 kts 201°
2026-04-20 14:20 49.80860 -2.18775 37212 ft 446 kts 201°
2026-04-20 14:20 49.74913 -2.21540 37211 ft 446 kts 201°
2026-04-20 14:21 49.68962 -2.24300 37207 ft 446 kts 201°
2026-04-20 14:21 49.63014 -2.27051 37210 ft 446 kts 201°
2026-04-20 14:22 49.57070 -2.29794 37211 ft 446 kts 201°
2026-04-20 14:22 49.51129 -2.32528 37212 ft 446 kts 201°
2026-04-20 14:23 49.45181 -2.35259 37207 ft 446 kts 202°
2026-04-20 14:23 49.39238 -2.37980 37208 ft 446 kts 202°
2026-04-20 14:24 49.33294 -2.40695 37209 ft 446 kts 202°
2026-04-20 14:24 49.27347 -2.43405 37195 ft 446 kts 202°
2026-04-20 14:25 49.21408 -2.46104 37183 ft 445 kts 202°
2026-04-20 14:25 49.15466 -2.48797 37186 ft 445 kts 202°
2026-04-20 14:26 49.09526 -2.51483 37184 ft 445 kts 202°
2026-04-20 14:26 49.03584 -2.54163 37165 ft 445 kts 202°
2026-04-20 14:27 48.97658 -2.56830 37175 ft 444 kts 201°
2026-04-20 14:27 48.91733 -2.59489 37175 ft 444 kts 201°
2026-04-20 14:28 48.85808 -2.62142 37166 ft 444 kts 201°
2026-04-20 14:28 48.79924 -2.64769 37172 ft 444 kts 201°
2026-04-20 14:29 48.73994 -2.67412 37164 ft 444 kts 201°
2026-04-20 14:29 48.68061 -2.70048 37151 ft 444 kts 201°
2026-04-20 14:30 48.62127 -2.72679 37160 ft 444 kts 201°
2026-04-20 14:30 48.57153 -2.74879 37147 ft 445 kts 201°
2026-04-20 14:31 48.51207 -2.77504 37147 ft 445 kts 201°
2026-04-20 14:31 48.45308 -2.80101 37145 ft 445 kts 201°
2026-04-20 14:32 48.39361 -2.82712 37119 ft 445 kts 201°
2026-04-20 14:32 48.33420 -2.85315 37127 ft 445 kts 201°
2026-04-20 14:33 48.27474 -2.87914 37128 ft 445 kts 201°
2026-04-20 14:33 48.21524 -2.90508 37118 ft 446 kts 201°
2026-04-20 14:34 48.15567 -2.93100 37103 ft 445 kts 201°
2026-04-20 14:34 48.09623 -2.95678 37098 ft 444 kts 201°
2026-04-20 14:35 48.03685 -2.98249 37096 ft 444 kts 201°
2026-04-20 14:35 47.97742 -3.00815 37099 ft 444 kts 201°
2026-04-20 14:36 47.91809 -3.03371 37092 ft 443 kts 201°
2026-04-20 14:36 47.85884 -3.05917 37086 ft 443 kts 201°
2026-04-20 14:37 47.79958 -3.08458 37092 ft 443 kts 201°
2026-04-20 14:37 47.74029 -3.10994 37090 ft 443 kts 201°
2026-04-20 14:38 47.68122 -3.13514 37089 ft 441 kts 201°
2026-04-20 14:38 47.62219 -3.16027 37090 ft 441 kts 201°
2026-04-20 14:39 47.56321 -3.18532 37086 ft 441 kts 201°
2026-04-20 14:39 47.50422 -3.21032 37085 ft 441 kts 201°
2026-04-20 14:40 47.44568 -3.23506 37079 ft 440 kts 201°
2026-04-20 14:40 47.38674 -3.25992 37077 ft 441 kts 201°
2026-04-20 14:41 47.32778 -3.28473 37058 ft 440 kts 201°
2026-04-20 14:41 47.26891 -3.30944 37076 ft 439 kts 201°
2026-04-20 14:42 47.21018 -3.33404 37075 ft 438 kts 201°
2026-04-20 14:42 47.15148 -3.35856 37076 ft 438 kts 201°
2026-04-20 14:43 47.09282 -3.38301 37071 ft 438 kts 201°
2026-04-20 14:43 47.03428 -3.40737 37072 ft 437 kts 201°
2026-04-20 14:44 46.97579 -3.43164 37070 ft 437 kts 201°
2026-04-20 14:44 46.91728 -3.45587 37054 ft 437 kts 201°
2026-04-20 14:45 46.85890 -3.47998 37065 ft 435 kts 201°
2026-04-20 14:45 46.80074 -3.50396 37067 ft 434 kts 201°
2026-04-20 14:46 46.74256 -3.52788 37064 ft 434 kts 201°
2026-04-20 14:46 46.68477 -3.55160 37064 ft 434 kts 201°
2026-04-20 14:47 46.62657 -3.57544 37060 ft 434 kts 201°
2026-04-20 14:48 46.53924 -3.61111 37053 ft 435 kts 201°
2026-04-20 14:48 46.48103 -3.63481 37044 ft 434 kts 200°
2026-04-20 14:49 46.42308 -3.65837 37045 ft 432 kts 200°
2026-04-20 14:49 46.36516 -3.68186 37049 ft 432 kts 200°
2026-04-20 14:50 46.30535 -3.69274 37016 ft 445 kts 177°
2026-04-20 14:50 46.24387 -3.67888 37026 ft 448 kts 175°
2026-04-20 14:51 46.18245 -3.66400 37038 ft 448 kts 175°
2026-04-20 14:51 46.12102 -3.64869 37038 ft 448 kts 175°
2026-04-20 14:52 46.05964 -3.63338 37033 ft 447 kts 175°
2026-04-20 14:52 45.99829 -3.61810 37033 ft 447 kts 175°
2026-04-20 14:53 45.93697 -3.60286 37026 ft 447 kts 175°
2026-04-20 14:53 45.87563 -3.58765 37017 ft 447 kts 175°
2026-04-20 14:54 45.81432 -3.57248 37026 ft 447 kts 175°
2026-04-20 14:54 45.75305 -3.55736 37024 ft 447 kts 175°
2026-04-20 14:55 45.69174 -3.54226 37013 ft 447 kts 175°
2026-04-20 14:55 45.63088 -3.52731 37016 ft 447 kts 175°
2026-04-20 14:56 45.56962 -3.51228 37019 ft 447 kts 175°
2026-04-20 14:56 45.50837 -3.49730 37008 ft 447 kts 175°
2026-04-20 14:57 45.44702 -3.48232 37004 ft 447 kts 175°
2026-04-20 14:57 45.38568 -3.46738 37005 ft 447 kts 175°
2026-04-20 14:58 45.32435 -3.45248 36983 ft 447 kts 175°
2026-04-20 14:58 45.26303 -3.43761 37001 ft 447 kts 175°
2026-04-20 14:59 45.20173 -3.42278 36996 ft 447 kts 175°
2026-04-20 14:59 45.14047 -3.40798 36973 ft 447 kts 175°
2026-04-20 15:00 45.07923 -3.39323 36990 ft 446 kts 175°
2026-04-20 15:00 45.01801 -3.37851 36990 ft 446 kts 175°
2026-04-20 15:01 44.95684 -3.36384 36996 ft 446 kts 175°
2026-04-20 15:01 44.89567 -3.34920 36984 ft 445 kts 175°
2026-04-20 15:02 44.83459 -3.33461 36987 ft 445 kts 175°
2026-04-20 15:02 44.77349 -3.32005 36985 ft 445 kts 175°
2026-04-20 15:03 44.71240 -3.30552 36978 ft 445 kts 175°
2026-04-20 15:03 44.65129 -3.29102 36977 ft 445 kts 175°
2026-04-20 15:04 44.59019 -3.27655 36975 ft 445 kts 175°
2026-04-20 15:04 44.52913 -3.26212 36972 ft 444 kts 175°
2026-04-20 15:05 44.46826 -3.24777 36970 ft 443 kts 175°
2026-04-20 15:05 44.40740 -3.23345 36968 ft 444 kts 175°
2026-04-20 15:06 44.34652 -3.21915 36960 ft 443 kts 175°
2026-04-20 15:06 44.28567 -3.20489 36962 ft 443 kts 175°
2026-04-20 15:07 44.22482 -3.19066 36961 ft 443 kts 175°
2026-04-20 15:07 44.16402 -3.17647 36952 ft 443 kts 175°
2026-04-20 15:08 44.10320 -3.16230 36958 ft 443 kts 175°
2026-04-20 15:08 44.04417 -3.13752 36944 ft 453 kts 152°
2026-04-20 15:09 43.99353 -3.08406 36937 ft 459 kts 145°
2026-04-20 15:09 43.94363 -3.02865 36952 ft 459 kts 144°
2026-04-20 15:10 43.89392 -2.97288 36956 ft 460 kts 144°
2026-04-20 15:10 43.84424 -2.91718 36953 ft 460 kts 144°
2026-04-20 15:11 43.79447 -2.86149 36927 ft 460 kts 144°
2026-04-20 15:11 43.74508 -2.80634 36939 ft 459 kts 144°
2026-04-20 15:12 43.69542 -2.75092 36945 ft 459 kts 144°
2026-04-20 15:12 43.64569 -2.69558 36940 ft 459 kts 145°
2026-04-20 15:13 43.59590 -2.64032 36922 ft 460 kts 145°
2026-04-20 15:13 43.54606 -2.58513 36936 ft 459 kts 145°
2026-04-20 15:14 43.49626 -2.53009 36935 ft 459 kts 145°
2026-04-20 15:14 43.44646 -2.47518 36940 ft 459 kts 145°
2026-04-20 15:15 43.39666 -2.42038 36911 ft 459 kts 145°
2026-04-20 15:15 43.34690 -2.36575 36930 ft 457 kts 145°
2026-04-20 15:16 43.29725 -2.31135 36936 ft 457 kts 145°
2026-04-20 15:16 43.24754 -2.25702 36931 ft 458 kts 145°
2026-04-20 15:17 43.19757 -2.20251 36930 ft 459 kts 145°
2026-04-20 15:17 43.14762 -2.14813 36941 ft 459 kts 145°
2026-04-20 15:18 43.10605 -2.10295 36936 ft 459 kts 145°
2026-04-20 15:18 43.05597 -2.04870 36934 ft 459 kts 145°
2026-04-20 15:19 43.00592 -1.99458 36936 ft 459 kts 145°
2026-04-20 15:19 42.95578 -1.94048 36933 ft 460 kts 145°
2026-04-20 15:20 42.90555 -1.88637 36923 ft 460 kts 145°
2026-04-20 15:20 42.85520 -1.83221 36941 ft 461 kts 145°
2026-04-20 15:21 42.80486 -1.77816 36934 ft 461 kts 145°
2026-04-20 15:21 42.77847 -1.75386 36920 ft 454 kts 158°
2026-04-20 15:21 42.74911 -1.73980 36937 ft 443 kts 174°
2026-04-20 15:21 42.71871 -1.73669 36945 ft 436 kts 187°
2026-04-20 15:22 42.68899 -1.74260 36921 ft 429 kts 200°
2026-04-20 15:22 42.63371 -1.77196 36922 ft 426 kts 208°
2026-04-20 15:23 42.58003 -1.80599 36922 ft 425 kts 209°
2026-04-20 15:23 42.52691 -1.84111 36919 ft 425 kts 210°
2026-04-20 15:24 42.47389 -1.87652 36919 ft 425 kts 210°
2026-04-20 15:24 42.42091 -1.91189 36912 ft 424 kts 210°
2026-04-20 15:25 42.36802 -1.94712 36905 ft 423 kts 210°
2026-04-20 15:25 42.31558 -1.98207 36911 ft 423 kts 210°
2026-04-20 15:26 42.26279 -2.01714 36924 ft 423 kts 209°
2026-04-20 15:26 42.20991 -2.05212 36922 ft 423 kts 209°
2026-04-20 15:27 42.15704 -2.08707 36921 ft 423 kts 209°
2026-04-20 15:27 42.10417 -2.12197 36933 ft 423 kts 209°
2026-04-20 15:28 42.05130 -2.15680 36938 ft 423 kts 209°
2026-04-20 15:28 41.99842 -2.19158 36947 ft 423 kts 209°
2026-04-20 15:29 41.94546 -2.22634 36927 ft 423 kts 209°
2026-04-20 15:29 41.89251 -2.26103 36939 ft 423 kts 209°
2026-04-20 15:30 41.83959 -2.29564 36934 ft 423 kts 209°
2026-04-20 15:30 41.78670 -2.33017 36930 ft 422 kts 209°
2026-04-20 15:31 41.73389 -2.36458 36924 ft 422 kts 209°
2026-04-20 15:31 41.68099 -2.39898 36927 ft 423 kts 209°
2026-04-20 15:32 41.62809 -2.43332 36927 ft 423 kts 209°
2026-04-20 15:32 41.57519 -2.46760 36929 ft 423 kts 209°
2026-04-20 15:33 41.52227 -2.50184 36912 ft 423 kts 209°
2026-04-20 15:33 41.46943 -2.53594 36930 ft 422 kts 209°
2026-04-20 15:34 41.41665 -2.56994 36928 ft 421 kts 209°
2026-04-20 15:34 41.36417 -2.60370 36936 ft 421 kts 209°
2026-04-20 15:35 41.30768 -2.62566 36922 ft 430 kts 184°
2026-04-20 15:35 41.24788 -2.62232 36932 ft 434 kts 181°
2026-04-20 15:36 41.18764 -2.61753 36945 ft 434 kts 180°
2026-04-20 15:36 41.12741 -2.61224 36939 ft 434 kts 180°
2026-04-20 15:37 41.06713 -2.60688 36949 ft 434 kts 180°
2026-04-20 15:37 41.00703 -2.60154 36942 ft 433 kts 180°
2026-04-20 15:38 40.94690 -2.59612 36940 ft 433 kts 180°
2026-04-20 15:38 40.88678 -2.59069 36939 ft 433 kts 180°
2026-04-20 15:39 40.82666 -2.58527 36951 ft 433 kts 180°
2026-04-20 15:39 40.76653 -2.57986 36947 ft 433 kts 180°
2026-04-20 15:40 40.70639 -2.57446 36939 ft 433 kts 180°
2026-04-20 15:40 40.64621 -2.56907 36949 ft 434 kts 180°
2026-04-20 15:41 40.58606 -2.56369 36941 ft 433 kts 180°
2026-04-20 15:41 40.52591 -2.55832 36941 ft 433 kts 180°
2026-04-20 15:42 40.46574 -2.55295 36953 ft 433 kts 180°
2026-04-20 15:42 40.40561 -2.54760 36937 ft 433 kts 180°
2026-04-20 15:42 40.37612 -2.54825 36926 ft 426 kts 194°
2026-04-20 15:43 40.34762 -2.55913 36969 ft 421 kts 203°
2026-04-20 15:43 40.29270 -2.58508 36961 ft 422 kts 203°
2026-04-20 15:44 40.23770 -2.61221 36951 ft 422 kts 204°
2026-04-20 15:44 40.18280 -2.63967 36946 ft 423 kts 204°
2026-04-20 15:45 40.12788 -2.66716 36943 ft 423 kts 204°
2026-04-20 15:45 40.07293 -2.69461 36958 ft 423 kts 204°
2026-04-20 15:46 40.01795 -2.72204 36950 ft 423 kts 204°
2026-04-20 15:46 39.96295 -2.74942 36950 ft 423 kts 203°
2026-04-20 15:47 39.90788 -2.77680 36954 ft 424 kts 203°
2026-04-20 15:47 39.85277 -2.80414 36957 ft 424 kts 203°
2026-04-20 15:48 39.79762 -2.83146 36951 ft 424 kts 203°
2026-04-20 15:48 39.74251 -2.85871 36948 ft 424 kts 203°
2026-04-20 15:49 39.68731 -2.88596 36945 ft 425 kts 203°
2026-04-20 15:49 39.63205 -2.91320 36937 ft 425 kts 203°
2026-04-20 15:50 39.57682 -2.94041 36938 ft 425 kts 203°
2026-04-20 15:50 39.52158 -2.96762 36927 ft 424 kts 203°
2026-04-20 15:51 39.46646 -2.99473 36930 ft 424 kts 203°
2026-04-20 15:51 39.41133 -3.02180 36930 ft 424 kts 203°
2026-04-20 15:52 39.35615 -3.04871 36931 ft 424 kts 203°
2026-04-20 15:52 39.30090 -3.07562 36913 ft 425 kts 203°
2026-04-20 15:53 39.21790 -3.11597 36923 ft 425 kts 203°
2026-04-20 15:53 39.16259 -3.14279 36924 ft 425 kts 203°
2026-04-20 15:54 39.10726 -3.16958 36926 ft 425 kts 203°
2026-04-20 15:54 39.05193 -3.19633 36921 ft 424 kts 202°
2026-04-20 15:55 38.99707 -3.22280 36919 ft 424 kts 202°
2026-04-20 15:55 38.94179 -3.24942 36918 ft 424 kts 202°
2026-04-20 15:56 38.88650 -3.27600 36913 ft 424 kts 202°
2026-04-20 15:56 38.83120 -3.30254 36908 ft 424 kts 202°
2026-04-20 15:57 38.77587 -3.32905 36912 ft 425 kts 202°
2026-04-20 15:57 38.72048 -3.35555 36914 ft 425 kts 202°
2026-04-20 15:58 38.66508 -3.38201 36916 ft 425 kts 202°
2026-04-20 15:58 38.60968 -3.40842 36919 ft 425 kts 202°
2026-04-20 15:59 38.55421 -3.43482 36923 ft 426 kts 202°
2026-04-20 15:59 38.49855 -3.46127 36912 ft 427 kts 202°
2026-04-20 16:00 38.44284 -3.48771 36910 ft 427 kts 202°
2026-04-20 16:00 38.38716 -3.51408 36905 ft 427 kts 202°
2026-04-20 16:01 38.33146 -3.54042 36913 ft 427 kts 202°
2026-04-20 16:01 38.27572 -3.56673 36907 ft 427 kts 202°
2026-04-20 16:02 38.21997 -3.59301 36903 ft 427 kts 202°
2026-04-20 16:02 38.16408 -3.61872 36899 ft 428 kts 196°
2026-04-20 16:03 38.13456 -3.62349 36896 ft 430 kts 182°
2026-04-20 16:03 38.10496 -3.62419 36882 ft 433 kts 184°
2026-04-20 16:03 38.04456 -3.62548 36905 ft 435 kts 182°
2026-04-20 16:04 37.98410 -3.62612 36901 ft 434 kts 182°
2026-04-20 16:04 37.92361 -3.62663 36904 ft 435 kts 182°
2026-04-20 16:05 37.86322 -3.62714 36909 ft 433 kts 182°
2026-04-20 16:05 37.80307 -3.62764 36906 ft 432 kts 182°
2026-04-20 16:06 37.75311 -3.62805 36911 ft 432 kts 182°
2026-04-20 16:06 37.69285 -3.62855 35546 ft 444 kts 182°
2026-04-20 16:07 37.66174 -3.62882 34813 ft 444 kts 182°
2026-04-20 16:07 37.63112 -3.62905 34333 ft 438 kts 182°
2026-04-20 16:07 37.60071 -3.62927 33585 ft 438 kts 182°
2026-04-20 16:07 37.57016 -3.62951 32695 ft 440 kts 182°
2026-04-20 16:08 37.53949 -3.62974 31883 ft 441 kts 182°
2026-04-20 16:08 37.50877 -3.62998 31140 ft 441 kts 182°
2026-04-20 16:08 37.47807 -3.63021 30365 ft 442 kts 182°
2026-04-20 16:08 37.44723 -3.62741 29420 ft 449 kts 170°
2026-04-20 16:09 37.41763 -3.61466 28635 ft 452 kts 155°
2026-04-20 16:09 37.39166 -3.59285 28174 ft 448 kts 141°
2026-04-20 16:09 37.37055 -3.56435 27674 ft 445 kts 127°
2026-04-20 16:09 37.35451 -3.53110 27055 ft 444 kts 121°
2026-04-20 16:10 37.33975 -3.49707 26437 ft 443 kts 120°
2026-04-20 16:10 37.32551 -3.46290 25847 ft 440 kts 119°
2026-04-20 16:10 37.31154 -3.42880 25277 ft 438 kts 119°
2026-04-20 16:10 37.29777 -3.39481 24691 ft 436 kts 118°
2026-04-20 16:11 37.28411 -3.36093 24121 ft 434 kts 118°
2026-04-20 16:11 37.27054 -3.32725 23572 ft 432 kts 118°
2026-04-20 16:11 37.25701 -3.29367 22906 ft 430 kts 118°
2026-04-20 16:11 37.24377 -3.26011 22240 ft 428 kts 118°
2026-04-20 16:12 37.23070 -3.22676 21731 ft 423 kts 118°
2026-04-20 16:12 37.21775 -3.19382 21215 ft 419 kts 118°
2026-04-20 16:12 37.20489 -3.16116 20681 ft 416 kts 118°
2026-04-20 16:12 37.19213 -3.12881 20143 ft 413 kts 118°
2026-04-20 16:13 37.17942 -3.09661 19626 ft 411 kts 118°
2026-04-20 16:13 37.16676 -3.06459 19092 ft 408 kts 118°
2026-04-20 16:13 37.15436 -3.03320 18585 ft 407 kts 117°
2026-04-20 16:13 37.14181 -3.00153 18039 ft 405 kts 118°
2026-04-20 16:14 37.12929 -2.96995 17482 ft 403 kts 118°
2026-04-20 16:14 37.11688 -2.93865 16968 ft 400 kts 118°
2026-04-20 16:14 37.10454 -2.90758 16491 ft 397 kts 118°
2026-04-20 16:14 37.09229 -2.87677 16015 ft 393 kts 118°
2026-04-20 16:15 37.08011 -2.84614 15538 ft 392 kts 118°
2026-04-20 16:15 37.06799 -2.81570 15061 ft 389 kts 118°
2026-04-20 16:15 37.05707 -2.78475 14525 ft 390 kts 107°
2026-04-20 16:15 37.05345 -2.75114 14014 ft 391 kts 89°
2026-04-20 16:16 37.05468 -2.71732 13582 ft 387 kts 88°
2026-04-20 16:16 37.05606 -2.68422 13111 ft 384 kts 87°
2026-04-20 16:16 37.05757 -2.65098 12643 ft 380 kts 87°
2026-04-20 16:16 37.05913 -2.61817 12203 ft 376 kts 87°
2026-04-20 16:17 37.06069 -2.58569 11867 ft 370 kts 87°
2026-04-20 16:17 37.06221 -2.55407 11702 ft 358 kts 86°
2026-04-20 16:17 37.06369 -2.52339 11531 ft 348 kts 86°
2026-04-20 16:17 37.06511 -2.49358 11357 ft 338 kts 86°
2026-04-20 16:18 37.06649 -2.46463 11206 ft 328 kts 86°
2026-04-20 16:18 37.06781 -2.43650 11061 ft 319 kts 86°
2026-04-20 16:18 37.06909 -2.40927 10958 ft 309 kts 86°
2026-04-20 16:18 37.07033 -2.38269 10722 ft 304 kts 86°
2026-04-20 16:19 37.07155 -2.35650 10510 ft 298 kts 86°
2026-04-20 16:19 37.07208 -2.33109 10397 ft 289 kts 94°
2026-04-20 16:19 37.06857 -2.30625 9963 ft 293 kts 102°
2026-04-20 16:19 37.06433 -2.28132 9361 ft 301 kts 102°
2026-04-20 16:20 37.06005 -2.25525 8748 ft 310 kts 103°
2026-04-20 16:20 37.05246 -2.22977 8112 ft 315 kts 114°
2026-04-20 16:20 37.04674 -2.20357 7488 ft 312 kts 99°
2026-04-20 16:20 37.04285 -2.17705 6900 ft 308 kts 102°
2026-04-20 16:21 37.03831 -2.15105 6341 ft 303 kts 103°
2026-04-20 16:21 37.03076 -2.12694 5837 ft 295 kts 123°
2026-04-20 16:21 37.01699 -2.10878 5471 ft 285 kts 145°
2026-04-20 16:21 37.00054 -2.09539 5288 ft 278 kts 148°
2026-04-20 16:22 36.98442 -2.08278 5173 ft 269 kts 148°
2026-04-20 16:22 36.96873 -2.07077 5050 ft 260 kts 149°
2026-04-20 16:22 36.95320 -2.06086 4933 ft 249 kts 166°
2026-04-20 16:22 36.93646 -2.06055 4761 ft 239 kts 197°
2026-04-20 16:23 36.92218 -2.07017 4505 ft 233 kts 224°
2026-04-20 16:23 36.91323 -2.08669 4243 ft 230 kts 248°
2026-04-20 16:23 36.90827 -2.10562 3968 ft 229 kts 254°
2026-04-20 16:23 36.90386 -2.12470 3690 ft 228 kts 253°
2026-04-20 16:24 36.89930 -2.14371 3408 ft 228 kts 253°
2026-04-20 16:24 36.89468 -2.16267 3124 ft 229 kts 253°
2026-04-20 16:24 36.89003 -2.18169 2832 ft 229 kts 253°
2026-04-20 16:24 36.88554 -2.20011 2579 ft 223 kts 253°
2026-04-20 16:25 36.88103 -2.21854 2280 ft 221 kts 253°
2026-04-20 16:25 36.87657 -2.23679 1973 ft 218 kts 253°
2026-04-20 16:25 36.87223 -2.25450 1683 ft 205 kts 252°
2026-04-20 16:25 36.86834 -2.27040 1453 ft 180 kts 252°
2026-04-20 16:26 36.86489 -2.28457 1212 ft 163 kts 251°
2026-04-20 16:26 36.86165 -2.29776 1015 ft 155 kts 252°
2026-04-20 16:26 36.85853 -2.31047 772 ft 151 kts 252°
2026-04-20 16:26 36.85552 -2.32267 604 ft 144 kts 253°
2026-04-20 16:27 36.85267 -2.33454 402 ft 143 kts 253°
2026-04-20 16:27 36.84977 -2.34646 220 ft 144 kts 252°
2026-04-20 16:27 36.84686 -2.35836 71 ft 140 kts 252°
2026-04-20 16:27 36.84436 -2.36854 45 ft 97 kts 253°
2026-04-20 16:28 36.84296 -2.37419 44 ft 45 kts 252°
2026-04-20 16:28 36.84234 -2.37666 39 ft 27 kts 252°
2026-04-20 16:28 36.84196 -2.37913 37 ft 31 kts 268°
2026-04-20 16:28 36.84220 -2.38151 33 ft 18 kts 282°
2026-04-20 16:29 36.84272 -2.38193 33 ft 7 kts 41°
2026-04-20 16:29 36.84294 -2.38132 34 ft 8 kts 71°
2026-04-20 16:29 36.84311 -2.38057 35 ft 10 kts 72°
2026-04-20 16:29 36.84333 -2.37971 36 ft 11 kts 72°
2026-04-20 16:30 36.84358 -2.37873 38 ft 13 kts 71°
2026-04-20 16:30 36.84384 -2.37765 39 ft 14 kts 74°
2026-04-20 16:30 36.84413 -2.37643 40 ft 15 kts 73°
2026-04-20 16:30 36.84446 -2.37508 42 ft 17 kts 72°
2026-04-20 16:31 36.84498 -2.37379 44 ft 16 kts 21°
2026-04-20 16:31 36.84565 -2.37327 45 ft 11 kts 71°
2026-04-20 16:31 36.84592 -2.37226 46 ft 13 kts 72°
2026-04-20 16:31 36.84622 -2.37113 47 ft 14 kts 59°
2026-04-20 16:32 36.84693 -2.37106 48 ft 7 kts 325°
2026-04-20 16:32 36.84701 -2.37141 47 ft 0 kts 247°
2026-04-20 16:32 36.84697 -2.37145 47 ft 2 kts 217°
2026-04-20 16:32 36.84672 -2.37168 47 ft 0 kts 222°